Theta_e
305 308 310 313 315 319 323 325 326 327 327 326 325 324 321 320 315 313 313 316 318 321 325 323 326 329 330 330 331 330 330 328 327 328 329 329 330 321 316 316 318 320 318 316 314 314 317 318 320 322 321 322 322 320 318 317 315 314 317 321 321 318 315 315 314 319 322 322 321 319 318 318 319 318
302 304 305 308 311 314 316 319 323 326 326 326 326 324 324 323 318 316 313 314 319 319 324 326 325 328 328 329 330 330 330 326 326 330 329 329 330 320 315 314 313 315 316 315 311 310 314 318 320 323 320 321 321 317 315 315 315 314 319 322 322 318 316 315 316 320 322 322 320 319 317 316 316 317
302 301 301 304 306 309 311 313 317 322 326 326 326 325 325 323 322 319 318 314 319 323 320 324 328 327 328 329 329 329 330 328 327 329 330 330 324 321 318 314 314 314 315 312 311 312 313 314 316 319 321 322 320 318 318 317 317 320 321 318 317 319 318 316 316 321 322 322 321 319 317 317 317 318
301 301 300 301 303 305 308 310 313 315 319 325 326 325 325 324 324 322 320 317 316 321 323 324 326 328 328 329 328 328 329 329 322 330 329 330 323 325 325 314 314 314 314 313 314 318 317 314 316 320 320 320 320 319 319 319 320 319 315 313 314 316 316 315 315 321 323 322 321 319 316 317 316 316
301 301 301 302 303 304 305 307 309 311 313 318 323 326 325 324 324 323 320 318 317 320 322 323 324 328 328 327 328 327 328 329 329 326 330 329 328 328 327 323 313 313 313 311 311 311 312 312 319 320 319 319 319 317 316 316 315 314 312 310 311 311 314 315 314 318 321 320 320 317 316 315 315 314
300 300 301 301 302 304 304 305 307 309 311 315 318 322 324 324 324 325 321 320 318 317 319 319 323 324 327 325 329 327 327 328 328 327 328 329 329 328 327 325 321 312 312 311 309 310 311 311 314 314 312 313 312 312 310 310 309 312 309 306 308 314 316 317 313 312 318 319 319 316 315 313 313 312
300 300 301 301 302 304 304 305 307 309 311 314 315 317 319 320 323 325 324 321 319 318 319 321 319 321 324 325 326 327 328 329 329 327 327 328 328 328 327 326 324 312 311 309 310 309 309 310 311 311 311 310 309 309 309 308 308 308 307 305 308 310 310 311 311 310 314 318 318 315 314 312 312 313
300 300 300 301 302 303 303 304 306 309 310 310 310 311 312 314 316 321 325 323 321 320 318 320 320 321 321 323 326 327 327 328 328 327 327 328 327 327 326 326 326 317 310 309 309 309 309 309 309 309 309 309 309 308 307 307 307 306 307 306 307 307 307 307 307 307 310 315 317 315 313 312 314 314
299 299 299 300 300 301 301 303 304 305 305 305 305 305 306 309 312 315 319 323 323 321 319 320 321 322 321 323 324 326 324 325 327 327 327 327 326 325 326 326 326 316 309 309 309 308 308 308 308 308 308 308 308 307 306 307 307 307 307 306 306 306 306 305 305 307 307 307 311 317 314 311 314 313
298 298 298 299 299 299 300 301 302 302 302 302 302 302 303 305 306 307 310 316 322 322 321 321 319 320 320 320 321 324 324 324 323 324 325 326 326 325 324 324 324 324 317 316 315 311 309 308 308 309 308 307 306 306 306 306 307 307 306 306 306 306 305 304 304 304 305 306 306 310 313 310 312 313
297 298 298 298 298 299 300 300 300 301 301 300 299 300 300 301 301 302 305 309 315 320 320 321 321 320 320 320 319 322 324 325 324 322 320 319 320 322 322 320 323 323 320 315 312 313 315 312 312 309 307 306 307 307 306 306 307 307 306 305 305 305 305 304 304 304 304 305 305 305 306 308 311 313
296 297 298 298 298 299 300 300 300 300 299 299 298 298 298 297 297 298 300 303 308 314 319 320 319 320 319 319 321 322 322 321 322 323 321 316 316 318 321 322 320 321 321 318 317 313 311 311 310 307 307 307 307 307 307 307 307 307 306 304 304 304 304 304 304 304 304 304 304 304 303 303 304 311
295 296 297 297 298 300 302 300 300 300 299 297 296 296 296 296 296 296 297 299 303 308 314 318 320 319 318 319 318 318 318 319 319 321 321 319 319 319 318 320 323 322 319 319 318 318 317 318 315 314 313 313 310 310 309 311 308 307 305 304 303 304 304 304 304 304 304 304 304 304 303 302 302 304
294 295 296 298 300 299 299 299 298 297 296 297 296 295 295 294 294 295 295 296 299 304 308 314 318 317 317 317 318 318 318 320 321 319 320 318 319 318 316 316 319 322 320 318 315 317 318 316 314 315 313 317 313 316 313 317 311 307 303 304 304 304 304 303 303 303 303 303 303 303 303 302 302 302
293 294 295 296 298 298 299 298 297 296 295 294 294 294 295 296 294 294 294 295 298 300 304 310 315 317 317 318 319 319 319 318 319 318 319 319 317 315 309 307 310 316 318 314 313 313 316 316 314 314 314 316 316 317 316 310 307 305 303 304 304 303 303 303 303 303 302 302 302 302 302 302 302 301
293 293 294 295 296 296 298 298 296 296 295 293 293 293 293 293 294 294 295 295 296 298 301 305 311 316 317 318 319 318 319 318 318 319 318 318 317 316 312 312 311 314 318 314 312 312 315 316 315 313 314 316 317 316 312 305 305 304 303 303 303 303 303 303 303 302 302 301 301 301 301 301 300 298
292 293 293 294 295 296 299 298 295 294 294 294 293 293 294 294 294 293 293 294 297 299 298 300 304 311 317 318 318 320 319 319 317 318 317 317 317 317 315 315 315 313 317 315 313 312 314 314 314 314 315 317 317 315 308 305 304 304 303 303 302 302 302 302 302 302 301 300 300 300 300 299 299 297
292 292 292 292 293 294 295 294 294 293 292 292 292 293 293 294 295 295 295 294 294 297 299 301 303 309 316 318 320 321 318 318 317 317 317 318 317 316 316 317 317 315 317 315 313 312 313 313 314 314 315 316 316 315 310 303 303 303 302 302 302 302 302 302 301 301 300 299 300 299 299 298 297 296
292 292 292 293 293 293 293 294 293 292 291 291 291 292 293 294 294 295 296 298 299 300 302 305 307 309 313 318 322 323 321 320 320 320 319 318 318 319 319 317 316 313 315 317 315 310 312 313 312 313 315 315 315 315 307 303 303 302 302 301 301 301 301 301 301 300 300 299 299 299 297 296 295 294
292 292 292 293 292 292 292 293 291 291 291 291 291 291 292 293 294 295 297 296 296 298 300 301 303 308 314 310 319 321 322 321 321 319 319 318 319 317 315 313 309 311 313 317 315 313 308 311 311 311 311 313 313 313 312 302 303 302 302 301 301 300 300 300 300 300 299 299 298 298 296 295 294 294
292 292 293 293 292 291 291 292 290 290 291 290 290 290 291 292 292 294 296 296 295 295 295 295 295 296 297 300 303 303 304 313 318 320 318 315 316 314 312 312 308 310 309 313 315 313 307 308 310 302 304 309 308 307 307 306 302 302 301 301 300 300 300 299 299 299 299 298 297 296 295 294 294 294
291 292 295 295 292 291 291 290 289 289 291 290 290 290 290 290 291 292 294 295 296 295 295 296 296 296 297 298 300 302 302 302 308 320 315 317 316 313 312 311 308 308 307 310 315 309 306 306 305 300 298 299 300 302 304 305 304 302 301 300 300 299 299 299 299 298 298 297 296 296 295 294 295 299
291 291 292 293 292 292 291 289 289 289 290 290 290 290 290 289 289 291 293 293 293 295 296 299 303 304 302 303 305 308 302 302 305 318 320 319 315 313 312 311 306 303 304 309 313 309 303 304 302 302 299 297 298 299 300 304 304 304 305 303 302 299 299 298 298 297 297 296 295 295 295 295 297 300
289 290 290 291 290 290 289 289 289 289 289 290 290 291 289 288 288 291 291 293 294 295 297 298 301 305 310 312 311 311 311 309 310 314 320 319 317 315 313 311 307 307 307 307 311 310 304 304 301 304 304 299 295 296 298 300 303 304 304 303 302 299 298 297 297 296 296 295 295 295 295 295 297 299
288 289 289 290 291 289 289 289 289 289 289 290 291 290 289 289 290 291 292 295 296 298 299 299 301 306 310 312 313 313 313 312 311 313 315 320 318 316 314 311 309 310 307 307 306 309 302 303 301 301 300 299 296 294 296 297 299 301 302 302 299 299 299 298 297 296 295 295 295 295 295 295 296 297
289 289 289 290 291 289 289 289 289 289 289 289 291 289 288 289 289 291 295 296 297 300 300 301 304 308 309 310 310 311 313 313 312 314 316 317 319 318 318 315 312 310 309 306 302 308 303 301 301 300 299 296 295 296 293 294 296 297 299 299 298 298 298 296 296 296 296 296 296 295 295 294 295 295
289 290 290 291 291 289 289 289 289 289 289 290 289 288 288 288 289 291 294 294 295 296 298 299 298 298 298 300 302 303 305 306 308 312 315 317 318 317 316 317 318 316 313 307 308 309 306 303 302 301 299 298 295 295 294 292 292 296 296 296 297 297 297 296 295 295 296 296 296 294 294 293 293 293
290 290 290 290 289 289 289 289 289 289 289 289 288 288 288 289 290 291 291 292 293 293 293 295 295 295 297 298 298 298 300 301 303 303 303 303 303 305 305 306 308 309 308 307 308 309 308 304 302 303 301 298 295 294 293 294 294 294 293 295 295 296 296 296 295 295 295 296 295 296 295 294 295 294
290 290 289 289 289 289 289 289 289 289 289 288 288 288 288 290 289 288 289 290 292 291 291 292 293 294 295 297 298 299 301 301 302 301 302 302 302 303 303 302 302 304 307 307 308 308 307 305 303 302 300 300 297 296 294 292 293 293 293 292 292 294 295 296 295 294 294 295 295 294 294 294 294 295
289 289 289 289 289 290 290 291 290 289 290 289 289 289 289 288 288 287 288 288 289 290 291 291 292 293 295 296 297 298 299 299 298 299 300 301 301 302 302 301 301 302 304 306 308 307 306 305 303 301 300 299 298 295 294 293 292 293 293 293 293 294 295 295 295 295 294 294 294 294 294 295 295 295
290 290 290 290 289 290 289 289 289 289 290 289 289 289 289 288 288 287 287 287 288 289 290 291 292 293 295 296 295 295 296 296 297 298 298 299 299 300 300 299 298 299 301 302 303 304 304 303 303 302 299 297 297 296 296 295 293 293 293 294 294 290 293 294 294 294 295 295 294 294 294 294 294 295
290 290 289 290 290 290 290 290 290 290 289 289 288 288 288 288 288 289 289 289 288 288 290 291 292 293 293 293 294 294 294 294 295 297 296 296 297 297 298 297 296 298 298 300 300 300 298 302 302 301 299 298 295 296 296 295 294 293 293 294 294 294 294 294 294 294 295 294 293 293 293 294 294 294
290 289 289 288 288 288 287 287 288 288 288 288 288 288 288 288 288 287 287 286 286 287 288 288 290 291 292 292 293 293 293 293 294 295 296 296 296 296 296 294 294 296 295 295 296 297 298 298 298 299 299 298 298 297 295 293 294 295 294 293 294 293 294 295 294 294 295 294 293 293 292 293 294 294
288 287 287 287 287 287 287 286 286 287 287 287 287 287 287 287 287 287 287 286 286 287 287 288 289 289 290 290 291 291 291 293 293 293 292 294 295 293 293 293 293 294 295 295 295 295 296 297 297 298 297 296 297 297 296 295 294 295 295 295 294 293 294 294 295 295 295 294 293 291 291 291 292 293
287 286 286 286 287 286 287 286 286 287 287 286 286 286 287 287 287 286 287 286 286 286 286 287 288 288 289 289 289 289 290 291 292 293 293 293 294 293 293 292 292 293 294 294 295 296 296 296 296 295 295 295 294 296 296 297 295 294 295 294 294 293 293 294 294 294 294 294 294 290 290 290 290 292
286 286 286 286 286 286 286 286 286 286 287 287 286 286 286 286 286 286 286 286 287 287 287 286 287 287 288 289 289 289 289 289 290 291 291 291 291 292 292 292 292 293 293 294 294 296 297 296 295 293 290 289 288 287 289 295 296 294 290 289 292 291 292 293 293 294 293 292 293 291 289 288 289 291
285 286 286 286 286 286 286 286 286 286 287 287 286 286 286 286 286 287 287 287 287 287 287 287 286 287 288 288 288 288 288 288 288 289 289 290 290 291 291 290 290 292 292 293 294 294 295 295 294 292 289 288 286 285 286 291 292 295 292 289 289 291 291 292 292 291 292 293 292 292 290 290 288 290
285 286 286 286 286 286 286 286 286 286 286 286 286 286 287 287 287 287 288 288 287 287 287 287 287 287 288 288 288 288 288 288 288 288 288 289 288 288 289 289 290 292 292 292 293 293 294 293 292 292 290 287 286 285 285 288 290 291 294 293 289 290 292 291 289 289 289 290 290 290 291 289 289 289
286 285 285 285 286 286 286 286 285 286 286 286 286 286 287 287 287 287 287 287 287 287 287 287 287 288 288 288 288 288 287 287 287 287 287 288 288 287 287 287 288 290 291 290 292 292 293 292 292 291 291 289 287 287 287 287 286 290 292 294 293 291 290 290 289 289 289 287 287 288 287 288 288 288
285 285 286 285 286 286 286 286 286 286 286 286 286 287 287 286 286 286 286 286 287 287 288 287 287 288 289 289 288 288 288 287 287 287 287 287 287 287 287 287 287 287 288 287 288 289 290 290 290 290 290 290 289 289 289 289 289 290 290 291 293 293 291 290 289 289 288 289 290 288 288 289 288 289
285 285 285 286 286 286 285 286 286 286 286 286 287 286 287 287 286 286 286 286 286 287 287 288 287 288 288 288 288 288 287 287 287 287 287 287 287 286 286 286 286 287 286 286 286 286 286 288 289 288 291 291 292 293 291 288 286 287 287 288 291 292 293 293 293 290 289 290 290 288 288 288 288 288
284 284 285 285 285 285 286 286 286 285 286 286 286 286 286 286 286 286 286 286 286 286 286 287 287 287 287 287 287 287 287 287 287 286 286 287 287 286 286 286 286 286 286 285 285 286 289 292 291 293 293 291 291 288 286 286 285 285 286 288 288 290 291 291 292 292 293 291 289 287 286 287 288 287
284 284 284 285 285 285 285 285 285 285 285 286 285 286 286 286 286 286 286 285 285 285 286 286 286 287 287 287 287 287 287 287 287 287 287 287 287 286 286 286 286 286 286 286 287 287 288 290 291 290 290 289 289 288 286 286 286 286 286 287 287 288 288 289 289 289 289 289 289 289 291 290 288 285
285 284 284 284 284 285 285 284 284 284 284 284 284 285 285 285 285 285 285 285 285 285 285 286 286 286 286 287 288 288 287 287 287 287 287 287 287 287 287 287 287 287 288 288 288 288 288 288 288 289 288 287 288 287 286 286 287 287 287 287 287 287 287 288 289 289 288 287 288 288 289 290 290 290
285 285 284 284 284 285 285 284 284 283 283 282 283 283 284 284 284 285 285 285 285 285 285 285 286 286 287 287 287 287 287 288 288 288 287 287 287 287 287 288 288 287 287 288 288 287 288 288 288 288 287 287 287 287 287 287 286 286 287 287 286 287 288 289 289 287 287 287 287 287 288 288 289 288
Wind_Speed
10 9 11 9 9 9 10 10 9 9 8 7 8 7 8 7 7 7 6 7 7 7 9 8 8 11 10 9 8 9 10 11 13 10 10 11 9 15 19 19 18 18 19 18 18 18 18 17 18 17 17 18 17 15 16 14 13 14 13 15 14 10 11 16 15 16 16 19 17 13 14 12 10 11
10 10 10 10 9 10 10 11 12 10 9 9 8 8 8 8 9 9 9 8 6 4 5 9 6 8 11 8 8 9 10 13 15 11 11 10 10 16 19 19 19 19 19 19 18 19 19 19 18 18 18 19 18 17 17 16 14 13 16 18 15 13 11 15 16 16 16 16 15 15 12 11 12 12
11 12 12 11 10 10 11 11 11 11 10 9 8 8 8 9 10 10 9 9 5 5 7 7 8 7 10 9 9 9 9 11 15 13 10 11 14 17 16 20 20 19 19 19 19 18 20 20 19 19 20 19 19 18 18 18 16 17 18 16 15 14 13 14 16 18 17 15 16 14 11 10 11 11
10 12 12 12 11 11 11 10 11 11 12 11 9 8 8 9 10 10 9 11 11 5 7 6 7 8 8 9 9 10 8 10 17 11 11 11 14 11 11 18 21 20 20 20 19 19 20 20 20 20 20 21 19 19 19 18 18 19 17 16 15 15 14 15 14 17 17 15 16 13 13 10 12 11
10 11 12 12 13 12 12 9 10 10 12 13 11 8 8 8 9 9 9 10 11 8 4 4 6 7 8 7 10 11 9 9 10 14 11 12 11 12 12 12 19 21 21 21 21 21 20 20 20 20 21 21 21 20 20 19 19 19 18 15 16 14 15 16 15 15 16 14 15 15 14 14 13 12
11 11 12 13 13 12 12 12 10 10 11 11 12 12 10 9 8 9 9 10 10 12 4 7 4 5 7 9 10 11 11 11 11 12 11 9 9 12 12 12 13 21 21 21 22 21 21 21 21 21 21 21 21 21 20 20 19 19 18 17 16 15 15 16 16 14 14 14 14 15 15 15 14 13
13 13 13 14 13 11 13 13 11 11 11 10 11 13 12 12 11 10 11 10 10 11 11 7 8 7 7 10 10 12 10 10 10 12 13 12 11 12 13 13 11 19 21 21 21 21 21 21 21 21 21 21 21 21 21 20 20 19 18 18 17 16 15 16 17 16 14 15 15 16 15 15 14 14
13 13 14 13 14 14 14 13 12 11 12 13 12 13 13 13 15 13 11 11 10 9 11 9 9 8 9 9 8 8 10 11 12 12 13 14 14 12 13 13 13 15 21 21 21 21 21 22 21 21 21 21 21 21 21 20 20 19 19 18 18 17 16 16 17 17 16 15 16 16 16 15 14 15
13 13 13 14 14 14 13 12 12 12 14 12 12 11 12 12 12 13 13 12 11 10 11 11 8 8 8 8 8 9 9 9 10 11 11 12 10 10 11 12 12 13 22 21 22 21 22 22 22 21 21 21 22 21 21 21 20 20 19 19 19 18 17 17 16 18 19 15 15 17 16 15 15 16
12 12 13 14 14 14 13 12 12 13 14 12 12 13 11 11 12 14 14 15 13 11 11 12 11 8 10 8 9 9 9 10 10 10 10 10 11 12 12 12 9 7 8 8 11 17 18 21 22 21 21 22 22 22 21 21 20 20 20 20 20 19 18 17 17 17 18 16 14 16 16 15 16 17
12 12 12 13 13 13 13 13 12 13 13 12 15 13 13 12 11 11 12 13 15 12 11 11 11 10 10 11 11 9 10 12 11 11 11 9 4 6 9 9 9 8 10 14 18 16 16 18 16 20 22 22 22 22 22 21 21 20 20 20 20 19 18 17 17 16 17 16 15 15 15 15 15 16
12 13 12 13 13 13 13 13 12 13 12 11 13 14 13 13 14 13 12 12 12 13 12 11 9 9 9 9 9 6 9 11 10 11 11 11 10 11 11 13 12 10 9 10 10 12 12 14 17 19 20 22 22 23 21 22 21 21 20 20 20 19 19 18 17 17 17 16 16 15 16 16 15 15
13 12 12 12 13 16 19 20 16 16 16 11 11 14 14 15 13 13 13 10 11 12 13 12 10 10 10 10 10 10 12 13 13 8 9 12 12 12 10 10 10 10 13 12 12 11 13 13 11 11 9 12 18 19 22 18 23 22 21 21 21 20 19 19 18 18 18 17 16 16 15 16 15 15
13 13 13 13 20 20 20 19 16 16 17 17 14 13 11 13 15 14 13 13 11 11 13 13 10 11 10 9 12 12 12 10 8 11 12 12 10 9 10 6 6 9 11 11 14 12 9 10 11 12 12 13 14 11 12 12 15 19 22 22 21 21 20 19 19 19 18 17 16 16 15 15 16 15
13 13 13 12 15 17 17 17 18 16 17 18 21 22 20 16 12 14 16 14 12 10 11 12 12 11 12 12 11 12 10 9 12 12 11 11 9 12 9 8 3 5 9 6 5 6 8 11 11 12 12 11 11 12 12 17 21 22 22 22 21 21 20 20 20 19 18 17 17 16 15 15 15 14
13 13 13 12 10 11 15 17 15 17 19 20 22 23 22 20 18 16 15 15 15 13 12 14 14 12 12 11 10 10 10 12 11 11 11 12 13 12 12 11 12 9 15 12 11 10 10 11 12 12 12 12 11 12 15 20 21 22 23 21 22 21 21 20 19 18 18 17 17 17 16 15 14 14
13 13 12 12 11 11 20 17 14 16 18 21 23 23 23 20 18 16 16 18 17 14 16 17 17 14 11 12 12 11 12 9 12 12 12 12 12 11 12 12 10 8 13 11 13 13 11 12 12 12 10 13 11 14 17 21 22 22 22 22 21 21 20 19 19 18 17 17 17 16 16 15 15 13
12 13 13 13 13 13 15 14 15 17 18 18 18 17 16 16 19 18 18 17 19 19 17 17 18 16 13 13 9 12 11 12 14 12 14 13 14 14 14 11 11 8 15 17 11 9 11 12 12 14 11 10 12 11 17 21 22 22 22 22 21 20 20 19 18 17 17 17 16 16 16 15 14 13
12 14 13 14 14 15 15 14 19 19 18 18 16 17 17 16 16 16 16 15 13 11 12 14 16 18 17 15 13 10 10 15 14 15 16 15 13 12 8 6 8 6 10 11 11 13 8 10 13 12 11 11 11 10 16 21 21 21 21 21 21 20 19 18 18 17 17 16 16 15 15 14 13 13
11 13 14 14 15 16 16 20 25 23 19 17 17 18 17 17 16 16 15 18 18 18 15 15 16 17 16 15 14 11 10 11 12 9 5 4 8 10 10 12 5 9 9 13 13 8 8 10 12 9 7 9 10 9 9 18 21 21 21 21 20 20 19 19 18 18 17 16 15 15 14 13 13 13
13 13 15 15 15 16 17 23 25 25 24 16 17 17 18 16 16 17 16 17 18 18 20 23 24 27 29 26 21 19 16 12 12 10 10 12 12 11 11 11 10 12 10 11 12 9 9 10 9 6 4 9 9 8 8 10 15 19 19 20 20 20 19 19 18 17 17 16 16 15 15 15 15 16
12 15 23 21 16 18 19 25 25 25 22 17 17 18 18 19 18 18 17 15 16 20 20 22 23 25 25 24 24 21 19 18 14 12 15 13 10 12 13 12 10 6 8 12 12 9 8 9 7 8 3 5 2 5 8 11 13 16 15 18 18 19 19 19 18 18 17 17 16 17 17 18 17 11
13 14 16 21 19 19 22 25 24 25 22 16 16 16 17 18 19 17 19 19 19 19 17 15 14 14 16 15 13 13 19 19 17 16 16 10 12 15 13 10 6 6 8 9 14 12 6 10 7 10 6 3 1 2 4 9 11 11 9 10 12 17 18 19 18 18 18 18 18 19 20 19 15 11
14 14 14 14 19 24 24 24 25 24 24 19 16 15 15 19 20 19 19 19 18 18 18 16 14 15 12 10 10 11 11 12 14 15 14 11 13 14 14 12 12 12 9 10 16 12 6 12 13 11 9 11 7 5 2 4 10 10 9 9 8 14 18 18 15 19 19 18 20 20 20 18 14 11
13 14 13 10 18 24 24 24 25 24 24 23 17 14 14 16 21 22 16 18 23 15 16 14 13 11 9 8 7 8 9 9 10 12 13 12 11 12 11 11 12 11 5 12 20 11 9 11 11 8 3 4 5 7 3 5 5 8 9 10 10 9 9 10 9 10 15 19 19 19 17 15 14 13
13 13 12 10 18 24 24 24 24 25 23 24 14 17 25 26 27 21 15 13 14 12 10 9 10 8 6 6 6 7 8 8 9 10 11 12 11 11 12 14 14 13 9 12 21 13 10 9 13 13 7 7 5 10 9 4 5 7 9 9 10 9 10 10 10 12 12 11 9 11 12 14 14 17
10 9 11 12 22 23 23 23 24 23 25 19 19 27 25 26 27 21 13 14 13 12 11 8 8 9 8 7 5 4 4 4 3 5 8 9 10 11 11 11 12 14 9 15 20 16 14 12 13 16 13 10 13 8 10 10 7 9 11 10 9 9 8 11 11 11 10 11 10 15 14 14 14 12
12 12 13 14 22 21 23 23 23 22 21 19 26 26 26 26 23 15 16 13 13 11 11 11 10 10 9 7 7 6 5 4 5 3 2 2 3 2 1 2 2 3 10 15 16 13 13 13 14 11 14 17 16 15 9 5 9 12 12 8 10 10 9 11 11 11 10 11 11 7 8 8 8 10
9 14 17 19 19 20 21 22 20 18 20 26 25 25 26 23 14 15 14 14 12 12 12 11 9 10 9 8 7 7 4 4 6 4 5 4 6 6 7 7 6 3 8 11 14 13 12 12 14 12 11 10 12 9 12 14 13 12 15 15 9 9 10 9 11 11 11 10 9 9 9 9 6 8
17 17 17 18 19 17 18 15 14 14 16 21 23 23 23 15 16 13 13 13 14 13 11 10 10 9 9 9 8 8 8 10 9 6 5 4 4 4 7 8 8 7 4 5 8 7 6 7 10 12 11 9 12 14 14 15 9 11 12 14 15 11 9 10 10 10 11 10 9 9 7 8 8 8
10 14 15 13 15 13 17 16 16 16 18 16 15 13 13 14 14 14 12 11 12 13 12 11 10 9 9 9 12 11 11 11 11 9 7 6 6 5 6 9 8 7 8 9 9 8 6 7 8 11 13 9 8 12 13 15 16 12 10 13 17 15 10 10 10 10 9 10 9 9 8 7 7 5
10 9 11 12 11 13 14 15 14 14 14 14 13 13 13 13 13 15 18 17 13 13 12 11 11 12 13 13 11 12 13 13 12 10 9 8 8 7 6 8 7 8 9 9 11 13 11 9 8 7 7 12 15 10 9 14 16 15 14 10 11 14 12 13 12 10 10 11 10 9 7 7 7 6
8 9 10 12 12 12 13 14 14 14 15 14 14 15 15 14 14 14 13 14 13 12 13 14 13 13 12 13 13 14 15 14 13 11 11 10 8 7 10 12 8 5 10 10 9 13 14 13 13 13 12 11 9 11 17 13 10 14 17 13 14 13 11 10 11 12 11 11 11 9 8 7 6 6
7 10 11 12 12 13 13 14 14 14 14 14 15 14 15 15 14 14 14 13 13 13 12 12 13 14 14 16 15 15 14 13 13 14 14 11 10 11 11 11 9 8 7 9 11 12 14 15 15 14 15 14 14 13 6 15 14 10 14 15 14 14 11 10 10 10 9 9 10 10 8 7 6 4
10 9 9 10 12 12 11 12 13 12 13 14 13 14 13 13 15 15 14 14 12 13 13 14 14 13 13 13 13 13 13 13 13 12 12 12 12 11 11 11 10 8 7 8 9 10 13 14 15 14 12 13 13 13 21 10 19 14 14 13 12 13 12 9 10 10 10 8 8 9 8 7 6 4
10 8 7 8 11 11 11 11 11 12 12 12 12 13 14 15 14 14 14 14 13 13 13 12 13 13 13 12 12 12 12 12 12 12 13 12 11 11 12 11 10 9 9 8 7 6 9 12 14 15 14 12 14 12 9 18 14 17 18 13 12 12 12 12 10 10 9 8 7 9 9 8 6 5
8 9 10 10 11 9 8 10 9 10 11 11 11 11 12 13 13 13 14 14 14 13 13 12 12 12 12 12 12 12 12 13 12 12 12 11 11 11 12 12 11 11 11 10 9 8 6 7 11 16 14 14 15 16 10 7 15 14 13 16 11 10 12 11 10 9 7 8 7 6 7 7 6 5
7 9 10 10 9 9 10 11 11 10 11 11 11 11 11 11 11 12 13 13 13 12 13 12 12 12 12 12 12 12 12 11 11 12 11 11 11 12 11 11 11 12 12 12 11 11 10 10 9 9 14 16 17 19 16 8 9 8 10 14 13 11 10 11 10 9 8 6 6 5 6 7 6 5
7 9 8 8 9 8 8 9 8 9 10 11 11 11 11 11 12 12 12 12 12 12 12 12 12 11 13 12 12 12 11 11 12 11 11 11 11 11 11 11 11 10 12 12 12 11 11 11 10 10 10 11 12 11 11 12 10 8 7 11 14 12 9 9 10 9 9 7 7 8 8 7 9 11
7 7 8 7 8 7 7 7 8 8 9 9 9 11 10 10 10 11 11 12 12 12 11 11 12 12 12 12 12 11 11 12 11 10 10 10 10 11 10 10 10 9 11 11 11 10 10 10 9 9 10 12 12 11 11 11 9 9 10 10 10 11 11 9 10 10 8 8 9 10 8 6 6 3
7 7 7 7 7 7 7 7 7 7 8 9 9 9 11 10 11 10 9 10 10 11 11 11 11 11 11 11 11 11 11 10 10 10 10 11 11 10 11 10 10 9 11 11 11 11 11 8 10 15 15 12 12 11 13 11 11 9 8 7 10 11 11 9 10 9 8 8 9 9 9 8 6 5
6 7 7 7 7 7 7 8 7 7 8 8 9 11 10 9 10 15 12 11 11 11 10 10 10 10 10 10 10 10 11 10 10 10 10 9 9 10 11 10 9 9 10 10 10 8 6 5 8 10 8 8 9 11 11 11 12 10 7 7 7 10 13 14 12 10 9 11 11 8 4 4 4 5
6 6 6 7 7 6 7 7 7 7 7 7 8 9 9 10 9 10 8 10 9 8 7 7 6 7 7 8 8 9 9 10 9 9 10 10 10 10 9 9 8 9 9 8 7 7 7 7 8 8 7 7 7 10 11 9 8 8 8 8 8 7 9 14 16 16 15 14 10 4 6 9 7 5
6 6 6 6 6 6 7 7 7 7 7 7 6 7 7 7 8 8 8 8 8 8 7 7 6 7 7 6 7 7 6 5 7 9 9 8 9 8 8 8 9 8 8 9 9 8 8 9 8 8 9 7 6 9 10 10 10 9 9 8 6 8 8 6 8 10 12 15 15 9 8 5 3 9
6 5 6 6 6 6 6 6 6 7 7 7 7 7 7 8 8 8 8 8 8 8 8 7 7 6 5 6 6 7 6 7 7 7 7 7 7 7 7 7 8 8 8 7 8 8 8 8 8 8 9 8 7 8 7 8 9 8 8 9 9 7 6 6 8 6 5 4 11 12 4 10 15 14
Wind_Direction
321 317 320 316 310 311 311 301 290 280 269 254 246 237 238 238 250 252 243 240 234 231 203 227 216 210 207 208 205 209 210 205 196 194 197 202 203 199 202 203 203 200 198 195 196 198 199 201 195 188 187 181 181 183 178 176 175 172 174 185 191 189 166 165 185 188 193 185 174 175 181 180 146 137
328 324 322 319 314 318 317 315 308 296 281 266 248 237 234 233 238 240 248 254 210 239 205 213 222 192 212 206 204 208 212 206 194 199 197 201 204 195 198 201 202 200 197 195 193 196 197 200 196 187 185 183 181 180 177 177 178 177 184 189 182 181 175 170 187 195 198 186 166 180 182 150 151 145
335 332 327 326 318 317 316 314 313 309 297 276 261 247 236 230 231 237 243 255 237 187 222 220 221 208 204 202 206 207 214 205 199 204 200 202 202 193 196 199 200 200 196 194 193 193 195 197 195 189 183 187 183 180 179 180 180 183 192 189 180 176 187 183 191 197 196 180 170 173 162 160 157 153
333 334 331 329 324 321 318 316 318 317 313 303 276 257 249 241 233 236 238 242 251 207 215 217 221 214 207 203 204 214 213 210 198 207 204 201 198 191 201 199 199 199 196 193 193 191 192 194 194 189 186 186 186 182 182 182 183 185 190 187 183 178 186 186 185 194 189 178 172 165 167 162 168 160
325 328 329 329 326 324 318 317 316 315 315 312 302 276 256 250 242 236 240 245 252 250 204 224 222 217 207 210 209 214 210 209 207 212 211 205 198 199 203 201 201 199 196 192 192 192 191 191 192 189 187 186 185 182 182 181 183 183 185 185 185 179 184 187 185 192 188 181 177 172 172 173 173 167
332 325 322 325 325 323 321 319 316 318 316 314 314 309 291 267 251 238 241 244 246 254 217 223 226 236 197 216 208 213 207 212 207 207 209 206 197 200 200 200 201 200 198 193 191 190 190 189 191 188 187 186 185 182 181 180 181 183 180 182 185 182 185 189 185 193 193 187 179 177 177 178 175 170
335 332 329 325 325 324 322 324 321 320 317 316 316 321 325 314 287 259 239 244 246 245 248 211 218 222 214 213 211 210 212 208 199 201 207 205 203 202 197 199 201 196 199 194 190 190 189 189 191 188 186 185 184 183 181 180 181 181 178 180 184 184 185 189 184 193 199 192 183 179 182 179 176 173
339 337 333 333 330 330 327 325 325 326 335 338 335 330 327 322 318 299 269 241 247 249 257 231 217 219 209 221 224 213 212 208 204 206 208 204 198 192 195 198 203 194 196 194 191 189 189 189 190 188 186 185 183 183 182 181 182 180 178 179 182 183 185 188 183 189 200 198 186 183 184 181 179 180
340 338 338 335 336 335 331 331 334 338 335 334 332 327 323 318 314 314 302 275 246 244 245 253 228 215 217 214 219 212 208 211 213 213 214 212 187 195 197 201 203 183 191 194 192 189 189 190 191 189 186 186 183 182 182 182 182 181 179 180 182 184 185 186 186 186 196 198 188 188 188 184 183 186
339 338 336 336 336 336 333 328 333 337 334 332 331 327 324 325 322 317 312 303 277 243 241 245 247 206 217 212 219 210 209 207 211 209 213 216 199 194 196 197 192 181 175 192 195 193 190 191 191 190 187 187 183 181 183 182 182 182 182 183 184 185 185 186 187 188 192 193 189 188 187 186 187 187
336 335 334 335 336 334 334 332 334 333 332 332 328 326 326 324 320 313 311 309 301 277 252 243 239 231 218 210 216 208 204 211 207 199 199 210 165 180 186 186 190 185 187 197 192 189 191 190 192 191 190 187 184 182 184 184 182 184 184 185 186 185 186 187 187 189 192 190 186 188 183 185 189 190
335 333 333 334 334 333 334 335 331 332 331 331 326 327 326 323 318 314 312 310 304 297 274 248 241 228 220 214 219 185 195 213 215 207 199 183 181 186 198 195 185 185 187 182 195 199 192 188 194 192 192 190 187 183 184 184 184 184 185 185 185 186 187 187 187 189 191 189 185 186 184 182 188 193
337 334 333 332 332 333 333 331 328 328 330 328 324 323 323 319 314 310 307 301 300 298 291 270 247 237 222 213 200 200 206 204 208 187 190 205 199 199 197 200 194 184 184 189 186 188 192 192 188 187 188 195 193 187 186 188 188 186 185 184 186 187 186 186 188 189 190 188 184 184 184 182 186 193
340 337 333 328 331 333 332 331 328 329 324 322 319 313 312 311 310 305 300 296 294 293 290 286 266 243 233 217 205 206 212 203 193 193 197 203 197 192 198 187 216 194 187 183 189 191 176 175 181 181 188 193 189 193 189 194 189 187 184 185 186 186 186 187 189 189 187 185 182 180 180 181 184 189
336 334 331 329 329 331 332 333 332 326 322 321 318 313 305 294 285 296 296 289 287 288 287 286 277 260 246 230 215 212 207 204 198 196 193 198 184 196 159 179 204 198 170 175 134 177 169 172 177 187 191 181 183 196 196 193 185 187 186 185 185 185 187 189 189 188 185 183 180 178 179 181 183 186
337 330 328 327 326 326 329 332 330 326 325 320 316 311 307 301 286 261 258 279 289 283 283 281 278 270 253 241 220 218 207 207 205 202 198 202 201 197 190 185 194 186 180 174 176 188 183 182 184 186 193 185 187 194 189 183 186 185 185 185 185 186 188 188 188 186 183 179 179 180 180 181 183 185
337 337 331 327 324 324 329 331 328 328 325 320 315 308 305 299 291 284 264 246 250 268 271 273 269 265 269 252 230 216 212 196 203 197 200 206 208 207 204 194 195 174 181 171 187 186 180 179 189 193 188 188 185 192 187 183 186 184 184 184 185 186 186 186 185 183 180 178 177 178 179 180 182 181
337 340 336 332 328 328 329 327 330 330 324 320 315 313 310 305 302 296 287 273 253 244 252 258 261 264 258 258 247 225 207 193 207 202 206 197 202 206 211 196 195 174 174 187 171 192 188 181 183 195 186 178 189 187 187 182 184 183 183 184 184 184 184 182 180 179 177 176 175 175 176 177 176 170
336 339 339 336 333 332 330 330 332 328 324 318 313 309 308 305 301 294 291 290 292 283 268 263 258 257 258 258 254 239 217 213 209 204 200 192 201 208 203 203 201 153 188 180 172 201 169 177 195 196 178 181 183 187 182 181 182 182 181 182 182 181 180 177 175 175 174 173 172 172 173 170 162 158
341 343 342 342 339 336 331 332 330 328 325 318 313 313 309 307 301 292 275 270 274 274 275 270 267 268 263 251 249 243 217 213 219 219 230 229 202 190 192 208 160 190 183 186 182 188 176 181 184 184 169 165 180 173 181 180 179 179 179 179 179 177 175 172 170 171 170 168 167 166 162 154 146 143
343 345 345 345 341 337 335 333 330 329 329 322 319 315 314 309 305 299 299 290 281 273 269 268 265 259 260 260 250 246 236 217 211 212 205 207 193 190 200 205 187 198 168 194 192 178 169 181 174 126 143 166 165 157 154 160 176 175 178 179 176 173 169 167 165 164 163 162 159 153 145 138 134 130
344 344 345 346 343 340 336 333 332 332 333 328 322 319 318 318 314 308 306 304 300 286 273 269 265 263 259 247 243 238 234 230 214 208 213 208 179 200 200 198 191 168 176 193 180 172 181 152 147 122 66 66 55 139 145 160 168 173 178 177 173 168 164 160 159 156 156 153 148 144 138 136 133 131
342 340 341 339 338 339 337 334 335 335 337 329 324 322 321 320 313 308 307 305 302 298 296 284 276 265 252 242 228 232 231 229 221 218 219 201 188 202 199 190 145 162 213 193 173 175 161 151 155 139 117 108 23 15 154 153 150 161 162 170 171 165 156 155 152 150 149 146 144 142 142 142 137 135
343 343 340 336 338 339 338 338 338 338 338 336 327 325 325 323 316 311 305 297 289 282 276 272 269 264 259 240 223 224 225 224 218 222 220 212 202 200 196 185 179 197 191 173 180 178 155 164 167 182 166 152 176 173 111 131 153 153 151 153 157 161 151 145 145 144 143 142 142 143 143 144 139 131
345 342 338 329 337 339 340 340 340 340 338 338 333 329 325 318 311 312 301 304 302 291 282 265 260 259 247 237 223 215 222 214 214 217 219 209 200 198 193 190 191 214 187 174 179 161 162 174 162 158 110 80 98 120 131 101 106 130 143 145 137 140 137 131 126 128 131 134 137 140 141 143 140 134
348 340 338 328 335 338 340 342 342 340 340 338 338 332 328 326 328 325 311 310 314 310 294 257 253 254 242 239 225 219 220 214 209 214 214 217 209 206 201 194 194 202 190 171 170 169 144 174 171 163 150 126 137 135 125 100 114 120 118 126 132 138 134 126 121 126 131 131 131 136 134 131 132 136
338 330 338 335 340 340 341 343 342 341 341 342 340 335 336 337 335 333 329 331 334 341 346 0 19 18 8 1 354 348 327 315 287 237 223 225 220 211 212 208 207 206 166 163 179 172 167 170 169 167 170 153 141 149 143 142 139 126 114 120 121 121 127 127 123 127 127 130 127 117 109 104 104 97
341 343 345 339 337 342 343 343 343 340 343 344 341 340 342 344 344 341 338 340 342 343 356 4 12 16 11 7 8 5 356 351 352 357 12 36 24 14 347 312 265 127 142 169 177 181 175 162 174 179 155 152 152 154 142 79 121 131 121 112 112 119 124 122 122 119 121 124 127 117 114 113 110 102
333 329 331 337 343 345 347 345 344 344 346 344 341 344 348 349 347 339 336 339 343 357 2 358 1 15 12 6 357 352 5 34 27 26 10 53 77 80 73 57 41 69 150 166 174 176 175 169 166 154 152 157 143 140 139 146 144 140 136 127 113 122 119 120 122 124 127 125 127 128 130 129 117 123
331 332 338 343 347 349 350 351 352 349 346 341 344 348 351 353 344 337 337 342 349 356 355 360 3 7 12 14 13 18 27 36 26 17 21 17 33 88 104 74 41 33 42 137 158 156 141 144 148 148 142 142 142 138 137 128 117 125 131 124 116 102 111 121 118 122 125 126 121 116 110 115 123 127
343 339 343 343 339 343 346 354 352 352 349 351 351 352 354 352 345 341 341 341 343 350 356 358 7 11 17 25 30 26 30 33 26 19 25 37 26 31 71 93 85 65 51 58 63 81 96 106 125 138 131 118 114 134 139 127 125 126 119 128 132 132 134 120 120 122 122 115 108 104 106 105 102 99
334 331 336 344 352 353 360 1 1 359 356 353 351 353 353 352 349 348 348 354 1 2 357 1 9 21 24 31 29 34 36 31 25 17 34 33 31 10 54 69 59 84 73 65 75 67 67 77 81 67 88 129 130 124 115 125 127 126 122 116 104 114 127 130 125 122 119 115 110 109 114 115 115 111
331 345 351 358 357 1 360 1 360 357 356 355 352 354 357 355 355 356 1 1 356 351 2 8 9 17 28 31 33 37 39 32 28 18 33 30 39 34 54 60 36 29 99 92 73 82 82 72 70 80 81 64 67 115 129 115 117 130 125 117 118 114 118 118 122 125 126 113 112 111 107 99 102 111
351 358 357 358 358 357 0 0 0 358 357 355 354 356 355 357 357 358 359 360 356 359 4 5 15 19 23 29 27 34 33 31 32 29 32 27 27 44 49 54 41 27 48 89 99 103 99 95 90 83 80 73 65 43 34 122 115 116 112 121 117 115 114 117 119 116 107 114 119 111 101 95 88 91
6 358 357 356 357 358 357 1 359 357 359 358 356 356 354 357 358 358 0 357 357 5 7 11 15 18 24 28 28 31 29 30 31 34 31 34 32 40 48 54 44 33 51 75 88 101 105 108 107 99 86 86 68 47 26 35 123 104 102 100 109 112 113 105 104 100 107 109 112 112 105 96 90 86
2 357 353 353 357 354 356 357 353 356 359 357 358 355 358 359 358 357 359 353 2 8 10 14 17 18 19 23 29 31 31 32 32 30 32 31 31 37 48 49 47 44 47 51 57 73 108 118 116 109 109 99 97 84 62 17 47 126 116 113 106 107 111 115 115 119 122 120 119 122 121 123 119 114
356 355 355 355 353 352 347 350 347 350 355 356 357 359 359 358 354 354 352 354 9 11 13 15 19 18 19 21 27 31 31 33 36 32 34 29 33 34 44 43 43 42 52 47 49 46 52 80 105 113 113 110 105 106 84 78 49 44 105 113 116 114 121 121 123 118 118 121 117 109 118 119 120 119
352 350 353 351 351 349 347 348 348 350 352 354 355 355 357 354 354 356 357 7 8 10 12 17 17 19 21 22 28 29 30 30 32 36 34 32 34 35 36 43 46 47 49 51 50 51 56 63 71 95 116 117 120 113 117 101 90 65 92 113 114 124 119 122 122 123 110 92 94 91 102 106 111 111
351 350 352 346 346 346 346 344 343 345 346 350 351 353 353 355 355 358 3 7 8 11 12 16 16 19 24 24 28 29 29 28 29 29 33 32 34 37 36 37 43 44 55 55 53 53 58 63 69 77 87 101 100 109 109 113 101 93 67 101 126 121 127 124 120 112 113 103 89 78 67 81 84 103
342 342 349 347 342 341 341 342 344 344 345 346 346 350 350 356 359 359 1 2 5 10 16 16 14 16 21 22 26 29 32 33 31 30 33 38 35 36 41 41 42 43 52 49 47 43 48 52 64 74 84 85 94 98 98 93 90 79 75 48 73 120 129 131 122 124 113 114 113 111 114 111 104 118
342 341 346 348 342 344 339 343 343 339 346 344 345 347 352 352 3 1 1 1 1 6 11 14 14 17 18 18 20 24 31 31 33 31 31 39 42 39 39 44 48 40 54 53 49 50 46 48 80 87 90 95 99 100 91 89 89 91 75 64 57 79 100 110 125 127 121 125 120 120 119 121 127 128
337 339 336 345 343 338 339 340 344 344 345 345 351 354 351 356 360 3 4 1 3 5 5 7 9 14 17 18 20 21 29 30 31 34 35 36 42 43 39 42 49 44 54 50 49 45 32 29 68 75 83 91 93 95 96 100 104 96 90 81 66 61 78 86 84 92 115 134 132 114 85 92 106 113
341 339 337 336 336 338 345 343 343 345 345 343 346 349 354 358 360 2 357 359 0 1 355 356 358 1 7 14 21 25 29 30 29 35 38 40 42 46 45 45 47 50 55 57 50 47 39 45 56 61 60 65 72 94 99 101 98 99 101 96 91 84 71 76 83 76 62 46 32 73 143 150 143 148
338 337 333 333 334 337 342 345 342 344 344 347 344 343 351 351 356 357 359 357 356 354 349 354 355 4 1 6 19 26 21 20 29 33 37 40 45 50 57 54 53 53 56 59 59 51 50 48 45 58 68 58 79 94 100 99 101 102 109 103 102 96 99 100 87 71 57 39 23 16 37 28 34 132
333 332 329 328 332 334 340 344 346 344 343 346 348 352 346 350 356 353 360 358 359 354 354 354 352 354 1 11 17 20 13 27 33 33 36 38 42 47 50 55 57 56 50 50 64 59 58 62 57 60 63 58 58 78 80 92 103 105 102 107 106 104 113 113 104 84 54 44 10 3 59 103 105 103